| time (UTC) | temp F | wind direction | speed MPH | gust MPH | rain 1hr in | rain 24hr in | rain mn in | humidity % | barometer mb |
| 20260506210051 | 85 | 114 | 2.0 | 9.0 | 0.00 | 0.00 | 0.00 | 72 | 1009.5 |
| 20260506205533 | 86 | 57 | 5.0 | 9.0 | 0.00 | 0.00 | 0.00 | 68 | 1009.4 |
| 20260506205036 | 87 | 88 | 2.0 | 8.0 | 0.00 | 0.00 | 0.00 | 68 | 1009.5 |
| 20260506204547 | 86 | 124 | 2.0 | 8.0 | 0.00 | 0.00 | 0.00 | 68 | 1009.6 |
| 20260506204033 | 86 | 305 | 3.0 | 9.0 | 0.00 | 0.00 | 0.00 | 68 | 1009.6 |
| 20260506203533 | 86 | 30 | 1.0 | 9.0 | 0.00 | 0.00 | 0.00 | 69 | 1009.8 |
| 20260506203051 | 85 | 349 | 3.0 | 9.0 | 0.00 | 0.00 | 0.00 | 77 | 1009.8 |
| 20260506202533 | 84 | 59 | 2.0 | 8.0 | 0.00 | 0.00 | 0.00 | 69 | 1009.8 |
| 20260506202033 | 85 | 62 | 3.0 | 9.0 | 0.00 | 0.00 | 0.00 | 72 | 1009.8 |
| 20260506201606 | 86 | 26 | 3.0 | 9.0 | 0.00 | 0.00 | 0.00 | 67 | 1009.8 |
| 20260506201037 | 84 | 355 | 1.0 | 7.0 | 0.00 | 0.00 | 0.00 | 68 | 1009.9 |
| 20260506200533 | 83 | 72 | 2.0 | 9.0 | 0.00 | 0.00 | 0.00 | 74 | 1009.9 |
| 20260506200052 | 84 | 83 | 4.0 | 9.0 | 0.00 | 0.00 | 0.00 | 73 | 1010.0 |
| 20260506195531 | 84 | 99 | 2.0 | 9.0 | 0.00 | 0.00 | 0.00 | 71 | 1009.9 |
| 20260506195032 | 84 | 2 | 4.0 | 9.0 | 0.00 | 0.00 | 0.00 | 71 | 1010.1 |
| 20260506194552 | 84 | 317 | 0.0 | 7.0 | 0.00 | 0.00 | 0.00 | 69 | 1010.1 |
| 20260506194036 | 85 | 94 | 3.0 | 7.0 | 0.00 | 0.00 | 0.00 | 71 | 1010.1 |
| 20260506193530 | 83 | 18 | 1.0 | 4.0 | 0.00 | 0.00 | 0.00 | 76 | 1010.3 |
| 20260506193054 | 83 | 76 | 1.0 | 7.0 | 0.00 | 0.00 | 0.00 | 74 | 1010.4 |
| 20260506192535 | 83 | 107 | 2.0 | 8.0 | 0.00 | 0.00 | 0.00 | 75 | 1010.4 |
| 20260506192036 | 84 | 0 | 3.0 | 8.0 | 0.00 | 0.00 | 0.00 | 72 | 1010.5 |
| 20260506191547 | 84 | 111 | 3.0 | 14.0 | 0.00 | 0.00 | 0.00 | 75 | 1010.5 |
| 20260506191036 | 84 | 166 | 4.0 | 14.0 | 0.00 | 0.00 | 0.00 | 72 | 1010.5 |
| 20260506190533 | 85 | 120 | 7.0 | 13.0 | 0.00 | 0.00 | 0.00 | 73 | 1010.6 |
| 20260506190047 | 85 | 104 | 5.0 | 12.0 | 0.00 | 0.00 | 0.00 | 72 | 1010.5 |
| 20260506185532 | 84 | 86 | 5.0 | 9.0 | 0.00 | 0.00 | 0.00 | 75 | 1010.5 |
| 20260506185035 | 84 | 112 | 5.0 | 10.0 | 0.00 | 0.00 | 0.00 | 74 | 1010.6 |
| 20260506184551 | 84 | 143 | 5.0 | 10.0 | 0.00 | 0.00 | 0.00 | 72 | 1010.7 |
| 20260506184035 | 83 | 93 | 6.0 | 10.0 | 0.00 | 0.00 | 0.00 | 76 | 1010.8 |
| 20260506183534 | 84 | 118 | 5.0 | 10.0 | 0.00 | 0.00 | 0.00 | 76 | 1010.8 |
| 20260506183047 | 82 | 126 | 5.0 | 10.0 | 0.00 | 0.00 | 0.00 | 75 | 1011.0 |
| 20260506182534 | 83 | 120 | 6.0 | 10.0 | 0.00 | 0.00 | 0.00 | 74 | 1011.0 |
| 20260506182035 | 82 | 151 | 2.0 | 8.0 | 0.00 | 0.00 | 0.00 | 79 | 1011.1 |
| 20260506181549 | 81 | 66 | 4.0 | 10.0 | 0.00 | 0.00 | 0.00 | 79 | 1011.2 |
| 20260506181032 | 81 | 183 | 3.0 | 11.0 | 0.00 | 0.00 | 0.00 | 78 | 1011.2 |
| 20260506180537 | 81 | 97 | 5.0 | 11.0 | 0.00 | 0.00 | 0.00 | 80 | 1011.3 |
| 20260506180049 | 80 | 134 | 6.0 | 11.0 | 0.00 | 0.00 | 0.00 | 81 | 1011.3 |
| 20260506175536 | 79 | 136 | 7.0 | 11.0 | 0.00 | 0.00 | 0.00 | 84 | 1011.2 |
| 20260506175033 | 78 | 141 | 4.0 | 9.0 | 0.00 | 0.00 | 0.00 | 84 | 1011.3 |
| 20260506174545 | 78 | 146 | 5.0 | 9.0 | 0.00 | 0.00 | 0.00 | 85 | 1011.3 |
| 20260506174035 | 78 | 100 | 4.0 | 9.0 | 0.00 | 0.00 | 0.00 | 86 | 1011.3 |
| 20260506173536 | 78 | 119 | 3.0 | 8.0 | 0.00 | 0.00 | 0.00 | 86 | 1011.4 |
| 20260506173105 | 77 | 133 | 3.0 | 7.0 | 0.00 | 0.00 | 0.00 | 86 | 1011.3 |
| 20260506172534 | 77 | 104 | 4.0 | 7.0 | 0.00 | 0.00 | 0.00 | 86 | 1011.4 |
| 20260506172033 | 77 | 106 | 3.0 | 9.0 | 0.00 | 0.00 | 0.00 | 86 | 1011.4 |
| 20260506171554 | 77 | 139 | 3.0 | 9.0 | 0.00 | 0.00 | 0.00 | 86 | 1011.4 |
| 20260506171035 | 77 | 97 | 5.0 | 10.0 | 0.00 | 0.00 | 0.00 | 86 | 1011.3 |
| 20260506170533 | 77 | 97 | 6.0 | 10.0 | 0.00 | 0.00 | 0.00 | 85 | 1011.4 |
| 20260506170044 | 78 | 84 | 7.0 | 12.0 | 0.00 | 0.00 | 0.00 | 84 | 1011.3 |
| 20260506165538 | 79 | 100 | 5.0 | 12.0 | 0.00 | 0.00 | 0.00 | 85 | 1011.4 |
| 20260506165034 | 79 | 79 | 7.0 | 12.0 | 0.00 | 0.00 | 0.00 | 85 | 1011.3 |
| 20260506164547 | 78 | 96 | 7.0 | 12.0 | 0.00 | 0.00 | 0.00 | 84 | 1011.4 |
| 20260506164035 | 78 | 108 | 7.0 | 12.0 | 0.00 | 0.00 | 0.00 | 85 | 1011.4 |
| 20260506163533 | 78 | 88 | 7.0 | 10.0 | 0.00 | 0.00 | 0.00 | 86 | 1011.3 |
| 20260506163101 | 78 | 69 | 6.0 | 9.0 | 0.00 | 0.00 | 0.00 | 86 | 1011.3 |
| 20260506162534 | 77 | 102 | 4.0 | 9.0 | 0.00 | 0.00 | 0.00 | 86 | 1011.3 |
| 20260506162037 | 77 | 42 | 6.0 | 9.0 | 0.00 | 0.00 | 0.00 | 87 | 1011.2 |
| 20260506161548 | 77 | 89 | 4.0 | 9.0 | 0.00 | 0.00 | 0.00 | 89 | 1011.1 |
| 20260506161036 | 76 | 76 | 6.0 | 9.0 | 0.00 | 0.00 | 0.00 | 90 | 1011.1 |
| 20260506160535 | 76 | 66 | 6.0 | 9.0 | 0.00 | 0.00 | 0.00 | 89 | 1011.0 |
| 20260506160046 | 76 | 76 | 5.0 | 9.0 | 0.00 | 0.00 | 0.00 | 89 | 1011.0 |
| 20260506155533 | 76 | 62 | 4.0 | 9.0 | 0.00 | 0.00 | 0.00 | 89 | 1011.0 |
| 20260506155034 | 76 | 64 | 3.0 | 8.0 | 0.00 | 0.00 | 0.00 | 89 | 1011.0 |
| 20260506154555 | 76 | 84 | 4.0 | 8.0 | 0.00 | 0.00 | 0.00 | 89 | 1010.8 |
| 20260506154033 | 76 | 64 | 4.0 | 8.0 | 0.00 | 0.00 | 0.00 | 89 | 1010.8 |
| 20260506153534 | 76 | 54 | 3.0 | 8.0 | 0.00 | 0.00 | 0.00 | 89 | 1010.7 |
| 20260506153049 | 76 | 75 | 5.0 | 8.0 | 0.00 | 0.00 | 0.00 | 89 | 1010.7 |
| 20260506152534 | 76 | 38 | 3.0 | 6.0 | 0.00 | 0.00 | 0.00 | 90 | 1010.7 |
| 20260506152037 | 76 | 85 | 3.0 | 6.0 | 0.00 | 0.00 | 0.00 | 90 | 1010.6 |
| 20260506151549 | 76 | 64 | 2.0 | 5.0 | 0.00 | 0.00 | 0.00 | 90 | 1010.6 |
| 20260506151033 | 76 | 50 | 2.0 | 5.0 | 0.00 | 0.00 | 0.00 | 90 | 1010.6 |
| 20260506150534 | 76 | 60 | 3.0 | 5.0 | 0.00 | 0.00 | 0.00 | 90 | 1010.6 |
| 20260506150048 | 75 | 58 | 2.0 | 6.0 | 0.00 | 0.00 | 0.00 | 90 | 1010.4 |
| 20260506145536 | 75 | 62 | 2.0 | 6.0 | 0.00 | 0.00 | 0.00 | 91 | 1010.4 |
| 20260506145039 | 75 | 62 | 2.0 | 6.0 | 0.00 | 0.00 | 0.00 | 91 | 1010.4 |
| 20260506144548 | 75 | 65 | 2.0 | 6.0 | 0.00 | 0.00 | 0.00 | 91 | 1010.3 |
| 20260506144033 | 75 | 109 | 3.0 | 6.0 | 0.00 | 0.00 | 0.00 | 91 | 1010.2 |
| 20260506143537 | 75 | 92 | 3.0 | 6.0 | 0.00 | 0.00 | 0.00 | 91 | 1010.2 |
| 20260506143045 | 75 | 94 | 2.0 | 4.0 | 0.00 | 0.00 | 0.00 | 92 | 1010.1 |
| 20260506142534 | 75 | 95 | 1.0 | 5.0 | 0.00 | 0.00 | 0.00 | 92 | 1010.0 |
| 20260506142037 | 75 | 120 | 2.0 | 6.0 | 0.00 | 0.00 | 0.00 | 92 | 1009.9 |
| 20260506141553 | 75 | 115 | 2.0 | 7.0 | 0.00 | 0.00 | 0.00 | 92 | 1009.9 |
| 20260506141035 | 75 | 95 | 2.0 | 7.0 | 0.00 | 0.00 | 0.00 | 92 | 1009.8 |
| 20260506140535 | 75 | 105 | 3.0 | 7.0 | 0.00 | 0.00 | 0.00 | 92 | 1009.8 |
| 20260506140055 | 75 | 74 | 2.0 | 9.0 | 0.00 | 0.00 | 0.00 | 92 | 1009.7 |
| 20260506135532 | 75 | 112 | 3.0 | 9.0 | 0.00 | 0.00 | 0.00 | 92 | 1009.6 |
| 20260506135033 | 74 | 135 | 4.0 | 9.0 | 0.00 | 0.00 | 0.00 | 92 | 1009.3 |
| 20260506134548 | 74 | 114 | 5.0 | 9.0 | 0.00 | 0.00 | 0.00 | 92 | 1009.3 |
| 20260506134035 | 74 | 115 | 2.0 | 8.0 | 0.00 | 0.00 | 0.00 | 92 | 1009.1 |
| 20260506133535 | 74 | 119 | 3.0 | 9.0 | 0.00 | 0.00 | 0.00 | 92 | 1009.0 |
| 20260506133045 | 74 | 130 | 4.0 | 9.0 | 0.00 | 0.00 | 0.00 | 92 | 1009.0 |
| 20260506132534 | 74 | 135 | 3.0 | 7.0 | 0.00 | 0.00 | 0.00 | 92 | 1008.9 |
| 20260506132034 | 74 | 145 | 4.0 | 7.0 | 0.00 | 0.00 | 0.00 | 92 | 1009.0 |
| 20260506131548 | 74 | 126 | 3.0 | 7.0 | 0.00 | 0.00 | 0.00 | 92 | 1009.1 |
| 20260506131036 | 74 | 150 | 2.0 | 8.0 | 0.00 | 0.00 | 0.00 | 92 | 1008.9 |
| 20260506130534 | 74 | 124 | 2.0 | 10.0 | 0.00 | 0.00 | 0.00 | 92 | 1008.8 |
| 20260506130052 | 74 | 138 | 5.0 | 10.0 | 0.00 | 0.00 | 0.00 | 92 | 1008.8 |
| 20260506125535 | 74 | 147 | 4.0 | 8.0 | 0.00 | 0.00 | 0.00 | 92 | 1008.7 |
| 20260506125033 | 74 | 154 | 4.0 | 8.0 | 0.00 | 0.00 | 0.00 | 92 | 1008.6 |
| 20260506124545 | 74 | 136 | 4.0 | 8.0 | 0.00 | 0.00 | 0.00 | 92 | 1008.7 |
| 20260506124033 | 74 | 124 | 3.0 | 8.0 | 0.00 | 0.00 | 0.00 | 92 | 1008.7 |
| 20260506123533 | 74 | 139 | 3.0 | 8.0 | 0.00 | 0.00 | 0.00 | 92 | 1008.6 |
| 20260506123042 | 74 | 121 | 4.0 | 8.0 | 0.00 | 0.00 | 0.00 | 92 | 1008.7 |
| 20260506122533 | 74 | 86 | 4.0 | 8.0 | 0.00 | 0.00 | 0.00 | 92 | 1008.7 |
| 20260506122033 | 74 | 129 | 2.0 | 6.0 | 0.00 | 0.00 | 0.00 | 92 | 1008.7 |
| 20260506121549 | 74 | 127 | 2.0 | 5.0 | 0.00 | 0.00 | 0.00 | 92 | 1008.7 |
| 20260506121034 | 74 | 114 | 1.0 | 4.0 | 0.00 | 0.00 | 0.00 | 91 | 1008.7 |
| 20260506120534 | 74 | 89 | 2.0 | 8.0 | 0.00 | 0.00 | 0.00 | 91 | 1008.7 |
| 20260506120106 | 74 | 172 | 3.0 | 8.0 | 0.00 | 0.00 | 0.00 | 91 | 1008.7 |
| 20260506115534 | 74 | 103 | 3.0 | 7.0 | 0.00 | 0.00 | 0.00 | 91 | 1008.6 |
| 20260506115033 | 74 | 114 | 3.0 | 7.0 | 0.00 | 0.00 | 0.00 | 91 | 1008.6 |
| 20260506114558 | 74 | 109 | 2.0 | 5.0 | 0.00 | 0.00 | 0.00 | 91 | 1008.5 |
| 20260506114033 | 74 | 120 | 1.0 | 5.0 | 0.00 | 0.00 | 0.00 | 91 | 1008.6 |
| 20260506113533 | 74 | 124 | 2.0 | 5.0 | 0.00 | 0.00 | 0.00 | 91 | 1008.6 |
| 20260506113046 | 74 | 119 | 2.0 | 5.0 | 0.00 | 0.00 | 0.00 | 91 | 1008.6 |
| 20260506112535 | 74 | 116 | 1.0 | 5.0 | 0.00 | 0.00 | 0.00 | 91 | 1008.6 |
| 20260506112034 | 74 | 126 | 2.0 | 5.0 | 0.00 | 0.00 | 0.00 | 91 | 1008.6 |
| 20260506111553 | 74 | 99 | 2.0 | 4.0 | 0.00 | 0.00 | 0.00 | 91 | 1008.6 |
| 20260506111033 | 74 | 63 | 0.0 | 3.0 | 0.00 | 0.00 | 0.00 | 91 | 1008.6 |
| 20260506110534 | 74 | 63 | 1.0 | 3.0 | 0.00 | 0.00 | 0.00 | 91 | 1008.6 |
| 20260506110051 | 74 | 0 | 0.0 | 3.0 | 0.00 | 0.00 | 0.00 | 91 | 1008.7 |
| 20260506105532 | 74 | 0 | 1.0 | 3.0 | 0.00 | 0.00 | 0.00 | 91 | 1008.7 |
| 20260506105036 | 74 | 122 | 0.0 | 5.0 | 0.00 | 0.00 | 0.00 | 91 | 1008.6 |
| 20260506104547 | 74 | 122 | 1.0 | 5.0 | 0.00 | 0.00 | 0.00 | 91 | 1008.7 |
| 20260506104034 | 74 | 0 | 1.0 | 5.0 | 0.00 | 0.00 | 0.00 | 91 | 1008.6 |
| 20260506103534 | 74 | 99 | 1.0 | 3.0 | 0.00 | 0.00 | 0.00 | 91 | 1008.5 |
| 20260506103047 | 74 | 99 | 0.0 | 4.0 | 0.00 | 0.00 | 0.00 | 91 | 1008.4 |
| 20260506102535 | 74 | 99 | 1.0 | 6.0 | 0.00 | 0.00 | 0.00 | 91 | 1008.4 |
| 20260506102034 | 74 | 0 | 1.0 | 6.0 | 0.00 | 0.00 | 0.00 | 91 | 1008.4 |
| 20260506101547 | 74 | 86 | 2.0 | 9.0 | 0.00 | 0.00 | 0.00 | 91 | 1008.6 |
| 20260506101033 | 74 | 120 | 2.0 | 10.0 | 0.00 | 0.00 | 0.00 | 91 | 1008.4 |
| 20260506100533 | 74 | 146 | 3.0 | 10.0 | 0.00 | 0.00 | 0.00 | 90 | 1008.2 |
| 20260506100051 | 74 | 153 | 5.0 | 10.0 | 0.00 | 0.00 | 0.00 | 91 | 1008.2 |
| 20260506095532 | 74 | 149 | 4.0 | 8.0 | 0.00 | 0.00 | 0.00 | 91 | 1008.2 |
| 20260506095034 | 74 | 134 | 4.0 | 8.0 | 0.00 | 0.00 | 0.00 | 91 | 1008.2 |
| 20260506094547 | 74 | 154 | 1.0 | 6.0 | 0.00 | 0.00 | 0.00 | 90 | 1008.4 |
| 20260506094034 | 74 | 108 | 3.0 | 8.0 | 0.00 | 0.00 | 0.00 | 90 | 1008.4 |
| 20260506093537 | 74 | 130 | 2.0 | 9.0 | 0.00 | 0.00 | 0.00 | 90 | 1008.5 |
| 20260506093105 | 74 | 119 | 4.0 | 12.0 | 0.00 | 0.00 | 0.00 | 90 | 1008.5 |
| 20260506092534 | 74 | 148 | 5.0 | 14.0 | 0.00 | 0.00 | 0.00 | 90 | 1008.5 |
| 20260506092034 | 74 | 154 | 7.0 | 14.0 | 0.00 | 0.00 | 0.00 | 90 | 1008.3 |
| 20260506091549 | 75 | 142 | 6.0 | 11.0 | 0.00 | 0.00 | 0.00 | 90 | 1008.4 |
| 20260506091034 | 75 | 163 | 6.0 | 11.0 | 0.00 | 0.00 | 0.00 | 90 | 1008.4 |
| 20260506090533 | 75 | 148 | 4.0 | 9.0 | 0.00 | 0.00 | 0.00 | 90 | 1008.4 |
| 20260506090055 | 75 | 155 | 4.0 | 10.0 | 0.00 | 0.00 | 0.00 | 90 | 1008.5 |
| 20260506085533 | 75 | 141 | 3.0 | 12.0 | 0.00 | 0.00 | 0.00 | 90 | 1008.4 |
| 20260506085034 | 75 | 137 | 7.0 | 12.0 | 0.00 | 0.00 | 0.00 | 89 | 1008.4 |
| 20260506084547 | 75 | 116 | 5.0 | 10.0 | 0.00 | 0.00 | 0.00 | 89 | 1008.5 |
| 20260506084038 | 75 | 113 | 3.0 | 9.0 | 0.00 | 0.00 | 0.00 | 89 | 1008.5 |
| 20260506083534 | 75 | 123 | 3.0 | 9.0 | 0.00 | 0.00 | 0.00 | 89 | 1008.5 |
| 20260506083047 | 75 | 111 | 4.0 | 8.0 | 0.00 | 0.00 | 0.00 | 89 | 1008.5 |
| 20260506082534 | 75 | 134 | 4.0 | 9.0 | 0.00 | 0.00 | 0.00 | 89 | 1008.6 |
| 20260506082034 | 75 | 116 | 3.0 | 9.0 | 0.00 | 0.00 | 0.00 | 89 | 1008.5 |
| 20260506081544 | 75 | 137 | 4.0 | 9.0 | 0.00 | 0.00 | 0.00 | 89 | 1008.6 |
| 20260506081042 | 75 | 159 | 5.0 | 12.0 | 0.00 | 0.00 | 0.00 | 89 | 1008.6 |
| 20260506080534 | 75 | 160 | 5.0 | 12.0 | 0.00 | 0.00 | 0.00 | 89 | 1008.7 |
| 20260506073053 | 75 | 151 | 6.0 | 15.0 | 0.00 | 0.00 | 0.00 | 89 | 1008.7 |
| 20260506072535 | 75 | 116 | 5.0 | 15.0 | 0.00 | 0.00 | 0.00 | 89 | 1008.7 |
| 20260506072033 | 75 | 159 | 8.0 | 14.0 | 0.00 | 0.00 | 0.00 | 89 | 1008.7 |
| 20260506071548 | 75 | 118 | 4.0 | 14.0 | 0.00 | 0.00 | 0.00 | 89 | 1008.8 |
| 20260506071033 | 75 | 122 | 7.0 | 14.0 | 0.00 | 0.00 | 0.00 | 89 | 1008.7 |
| 20260506070535 | 75 | 128 | 5.0 | 14.0 | 0.00 | 0.00 | 0.00 | 89 | 1008.7 |
| 20260506062034 | 75 | 118 | 8.0 | 15.0 | 0.00 | 0.00 | 0.00 | 90 | 1008.9 |
| 20260506061559 | 75 | 153 | 6.0 | 15.0 | 0.00 | 0.00 | 0.00 | 90 | 1008.9 |
| 20260506061034 | 75 | 130 | 7.0 | 15.0 | 0.00 | 0.00 | 0.00 | 90 | 1008.8 |
| 20260506060533 | 75 | 139 | 6.0 | 13.0 | 0.00 | 0.00 | 0.00 | 90 | 1008.9 |
| 20260506051033 | 76 | 130 | 7.0 | 13.0 | 0.00 | 0.00 | 0.00 | 88 | 1008.7 |
| 20260506050534 | 76 | 172 | 7.0 | 15.0 | 0.00 | 0.00 | 0.00 | 87 | 1008.6 |
| 20260506045033 | 76 | 147 | 7.0 | 12.0 | 0.00 | 0.00 | 0.00 | 87 | 1008.6 |
| 20260506044551 | 76 | 135 | 6.0 | 12.0 | 0.00 | 0.00 | 0.00 | 87 | 1008.6 |
| 20260506044033 | 76 | 115 | 7.0 | 13.0 | 0.00 | 0.00 | 0.00 | 86 | 1008.7 |
| 20260506043533 | 77 | 149 | 8.0 | 13.0 | 0.00 | 0.00 | 0.00 | 86 | 1008.6 |
| 20260506043052 | 77 | 143 | 7.0 | 14.0 | 0.00 | 0.00 | 0.00 | 86 | 1008.6 |
| 20260506042534 | 77 | 120 | 7.0 | 14.0 | 0.00 | 0.00 | 0.00 | 86 | 1008.6 |
| 20260506042034 | 77 | 171 | 6.0 | 14.0 | 0.00 | 0.00 | 0.00 | 86 | 1008.4 |
| 20260506041603 | 77 | 151 | 8.0 | 16.0 | 0.00 | 0.00 | 0.00 | 85 | 1008.4 |
| 20260506041034 | 77 | 138 | 7.0 | 16.0 | 0.00 | 0.00 | 0.00 | 85 | 1008.4 |
| 20260506040536 | 77 | 145 | 9.0 | 14.0 | 0.00 | 0.00 | 0.00 | 85 | 1008.3 |
| 20260506040049 | 78 | 131 | 9.0 | 16.0 | 0.00 | 0.00 | 0.00 | 85 | 1008.2 |
| 20260506035533 | 78 | 114 | 7.0 | 16.0 | 0.00 | 0.00 | 0.00 | 84 | 1008.2 |
| 20260506035033 | 78 | 147 | 9.0 | 15.0 | 0.00 | 0.00 | 0.00 | 84 | 1008.0 |
| 20260506034548 | 78 | 132 | 8.0 | 15.0 | 0.00 | 0.00 | 0.00 | 84 | 1008.1 |
| 20260506034033 | 78 | 105 | 7.0 | 15.0 | 0.00 | 0.00 | 0.00 | 83 | 1008.0 |
| 20260506033533 | 78 | 141 | 8.0 | 18.0 | 0.00 | 0.00 | 0.00 | 83 | 1008.0 |
| 20260506033052 | 78 | 149 | 9.0 | 18.0 | 0.00 | 0.00 | 0.00 | 83 | 1008.0 |
| 20260506032533 | 79 | 94 | 10.0 | 17.0 | 0.00 | 0.00 | 0.00 | 82 | 1007.8 |
| 20260506032034 | 79 | 133 | 9.0 | 16.0 | 0.00 | 0.00 | 0.00 | 82 | 1007.8 |
| 20260506031547 | 79 | 151 | 7.0 | 17.0 | 0.00 | 0.00 | 0.00 | 82 | 1007.8 |
| 20260506031036 | 79 | 111 | 8.0 | 17.0 | 0.00 | 0.00 | 0.00 | 82 | 1007.7 |
| 20260506030534 | 79 | 124 | 8.0 | 16.0 | 0.00 | 0.00 | 0.00 | 81 | 1007.7 |
| 20260506030047 | 79 | 112 | 6.0 | 12.0 | 0.00 | 0.00 | 0.00 | 81 | 1007.7 |
| 20260506025534 | 80 | 138 | 7.0 | 12.0 | 0.00 | 0.00 | 0.00 | 81 | 1007.7 |
| 20260506025033 | 80 | 109 | 6.0 | 12.0 | 0.00 | 0.00 | 0.00 | 80 | 1007.5 |
| 20260506024546 | 80 | 111 | 5.0 | 12.0 | 0.00 | 0.00 | 0.00 | 80 | 1007.4 |
| 20260506024033 | 80 | 113 | 4.0 | 14.0 | 0.00 | 0.00 | 0.00 | 80 | 1007.5 |
| 20260506023534 | 80 | 133 | 5.0 | 14.0 | 0.00 | 0.00 | 0.00 | 79 | 1007.3 |
| 20260506023052 | 80 | 95 | 6.0 | 13.0 | 0.00 | 0.00 | 0.00 | 79 | 1007.1 |
| 20260506022534 | 80 | 119 | 6.0 | 12.0 | 0.00 | 0.00 | 0.00 | 79 | 1007.1 |
| 20260506022033 | 80 | 119 | 6.0 | 12.0 | 0.00 | 0.00 | 0.00 | 79 | 1007.0 |
| 20260506021548 | 80 | 130 | 6.0 | 11.0 | 0.00 | 0.00 | 0.00 | 79 | 1006.9 |
| 20260506021037 | 80 | 127 | 6.0 | 10.0 | 0.00 | 0.00 | 0.00 | 78 | 1006.8 |
| 20260506020532 | 80 | 81 | 5.0 | 9.0 | 0.00 | 0.00 | 0.00 | 79 | 1006.8 |
| 20260506020115 | 81 | 113 | 3.0 | 5.0 | 0.00 | 0.00 | 0.00 | 78 | 1006.8 |
| 20260506015536 | 81 | 106 | 2.0 | 4.0 | 0.00 | 0.00 | 0.00 | 78 | 1006.8 |
| 20260506015034 | 81 | 118 | 1.0 | 4.0 | 0.00 | 0.00 | 0.00 | 77 | 1006.6 |
| 20260506014547 | 81 | 95 | 1.0 | 4.0 | 0.00 | 0.00 | 0.00 | 77 | 1006.5 |
| 20260506014033 | 82 | 91 | 2.0 | 4.0 | 0.00 | 0.00 | 0.00 | 77 | 1006.4 |
| 20260506013534 | 82 | 54 | 0.0 | 3.0 | 0.00 | 0.00 | 0.00 | 76 | 1006.3 |
| 20260506013046 | 82 | 54 | 0.0 | 3.0 | 0.00 | 0.00 | 0.00 | 75 | 1006.3 |
| 20260506012534 | 82 | 0 | 0.0 | 4.0 | 0.00 | 0.00 | 0.00 | 74 | 1006.0 |
| 20260506012035 | 83 | 0 | 2.0 | 4.0 | 0.00 | 0.00 | 0.00 | 74 | 1006.0 |
| 20260506011549 | 83 | 15 | 1.0 | 4.0 | 0.00 | 0.00 | 0.00 | 73 | 1006.0 |
| 20260506011035 | 83 | 51 | 2.0 | 5.0 | 0.00 | 0.00 | 0.00 | 73 | 1005.9 |
| 20260506010533 | 83 | 47 | 2.0 | 5.0 | 0.00 | 0.00 | 0.00 | 73 | 1005.9 |
| 20260506010050 | 84 | 51 | 1.0 | 3.0 | 0.00 | 0.00 | 0.00 | 72 | 1005.8 |
| 20260506005534 | 84 | 360 | 1.0 | 3.0 | 0.00 | 0.00 | 0.00 | 73 | 1005.7 |
| 20260506005033 | 84 | 116 | 1.0 | 4.0 | 0.00 | 0.00 | 0.00 | 72 | 1005.7 |
| 20260506004548 | 84 | 114 | 1.0 | 4.0 | 0.00 | 0.00 | 0.00 | 72 | 1005.7 |
| 20260506004034 | 84 | 105 | 1.0 | 4.0 | 0.00 | 0.00 | 0.00 | 72 | 1005.7 |
| 20260506003533 | 84 | 67 | 1.0 | 4.0 | 0.00 | 0.00 | 0.00 | 72 | 1005.8 |
| 20260506003048 | 84 | 93 | 1.0 | 4.0 | 0.00 | 0.00 | 0.00 | 72 | 1005.7 |
| 20260506002533 | 84 | 116 | 1.0 | 7.0 | 0.00 | 0.00 | 0.00 | 71 | 1005.7 |
| 20260506002033 | 84 | 110 | 2.0 | 7.0 | 0.00 | 0.00 | 0.00 | 71 | 1005.8 |
| 20260506001556 | 84 | 116 | 4.0 | 7.0 | 0.00 | 0.00 | 0.00 | 71 | 1005.7 |
| 20260506001034 | 84 | 59 | 1.0 | 6.0 | 0.00 | 0.00 | 0.00 | 70 | 1005.8 |
| 20260506000534 | 85 | 78 | 3.0 | 6.0 | 0.00 | 0.00 | 0.00 | 70 | 1005.7 |
| 20260506000106 | 85 | 92 | 2.0 | 7.0 | 0.00 | 0.00 | 0.00 | 68 | 1005.8 |
| 20260505235537 | 85 | 87 | 2.0 | 7.0 | 0.00 | 0.00 | 0.00 | 67 | 1005.7 |
| 20260505235035 | 85 | 115 | 3.0 | 9.0 | 0.00 | 0.00 | 0.00 | 69 | 1005.7 |
| 20260505234546 | 85 | 108 | 5.0 | 9.0 | 0.00 | 0.00 | 0.00 | 69 | 1005.6 |
| 20260505234034 | 85 | 78 | 5.0 | 10.0 | 0.00 | 0.00 | 0.00 | 69 | 1005.6 |
| 20260505233533 | 86 | 168 | 4.0 | 10.0 | 0.00 | 0.00 | 0.00 | 67 | 1005.6 |
| 20260505233055 | 86 | 114 | 2.0 | 6.0 | 0.00 | 0.00 | 0.00 | 66 | 1005.6 |
| 20260505232537 | 86 | 114 | 1.0 | 4.0 | 0.00 | 0.00 | 0.00 | 68 | 1005.6 |
| 20260505232033 | 86 | 0 | 1.0 | 5.0 | 0.00 | 0.00 | 0.00 | 66 | 1005.6 |
| 20260505231556 | 86 | 114 | 1.0 | 7.0 | 0.00 | 0.00 | 0.00 | 68 | 1005.6 |
| 20260505231034 | 85 | 111 | 1.0 | 8.0 | 0.00 | 0.00 | 0.00 | 68 | 1005.6 |
| 20260505230533 | 86 | 135 | 3.0 | 8.0 | 0.00 | 0.00 | 0.00 | 67 | 1005.7 |
| 20260505230051 | 85 | 116 | 2.0 | 6.0 | 0.00 | 0.00 | 0.00 | 69 | 1005.6 |
| 20260505225609 | 85 | 90 | 3.0 | 9.0 | 0.00 | 0.00 | 0.00 | 70 | 1005.8 |
| 20260505225033 | 86 | 74 | 2.0 | 9.0 | 0.00 | 0.00 | 0.00 | 68 | 1005.8 |
| 20260505224550 | 87 | 85 | 2.0 | 8.0 | 0.00 | 0.00 | 0.00 | 67 | 1005.8 |
| 20260505224031 | 87 | 132 | 2.0 | 10.0 | 0.00 | 0.00 | 0.00 | 66 | 1005.8 |
| 20260505223533 | 87 | 106 | 4.0 | 10.0 | 0.00 | 0.00 | 0.00 | 67 | 1005.7 |
| 20260505223047 | 87 | 118 | 6.0 | 10.0 | 0.00 | 0.00 | 0.00 | 67 | 1005.7 |
| 20260505222537 | 87 | 118 | 4.0 | 10.0 | 0.00 | 0.00 | 0.00 | 66 | 1005.6 |
| 20260505222038 | 87 | 4 | 3.0 | 10.0 | 0.00 | 0.00 | 0.00 | 68 | 1005.6 |
| 20260505221551 | 87 | 103 | 2.0 | 11.0 | 0.00 | 0.00 | 0.00 | 67 | 1005.7 |
| 20260505221033 | 86 | 0 | 3.0 | 11.0 | 0.00 | 0.00 | 0.00 | 69 | 1005.7 |
| 20260505220531 | 87 | 128 | 6.0 | 12.0 | 0.00 | 0.00 | 0.00 | 68 | 1005.8 |
| 20260505215534 | 88 | 141 | 5.0 | 11.0 | 0.00 | 0.00 | 0.00 | 67 | 1005.8 |
| 20260505215035 | 88 | 91 | 5.0 | 11.0 | 0.00 | 0.00 | 0.00 | 66 | 1005.9 |
| 20260505214554 | 87 | 154 | 4.0 | 11.0 | 0.00 | 0.00 | 0.00 | 65 | 1005.9 |
| 20260505214035 | 86 | 196 | 5.0 | 14.0 | 0.00 | 0.00 | 0.00 | 65 | 1006.2 |
| 20260505213534 | 87 | 178 | 7.0 | 15.0 | 0.00 | 0.00 | 0.00 | 65 | 1006.2 |
| 20260505213047 | 86 | 183 | 5.0 | 15.0 | 0.00 | 0.00 | 0.00 | 68 | 1006.2 |
| 20260505212534 | 86 | 141 | 6.0 | 14.0 | 0.00 | 0.00 | 0.00 | 69 | 1006.3 |
| 20260505212035 | 86 | 187 | 5.0 | 16.0 | 0.00 | 0.00 | 0.00 | 68 | 1006.4 |
| 20260505211614 | 86 | 143 | 5.0 | 17.0 | 0.00 | 0.00 | 0.00 | 68 | 1006.4 |
| 20260505211035 | 86 | 128 | 9.0 | 17.0 | 0.00 | 0.00 | 0.00 | 66 | 1006.5 |
| 20260505210534 | 85 | 144 | 4.0 | 10.0 | 0.00 | 0.00 | 0.00 | 67 | 1006.6 |